This is the latest recevied weather packets stored in our database for station/object F4ELU-13. If no packets are shown the sender has not sent any weather packets the latest 10 day(s).
| Time | Temp. | Humidity | Pressure | Rain* | Wind** | Luminosity | Snow |
|---|---|---|---|---|---|---|---|
| 1778174283 | 17.78° C | 55% | 1012.4 hPa | 0 mm | - | - | - |
| 1778173743 | 17.78° C | 55% | 1012.5 hPa | 0 mm | - | - | - |
| 1778173203 | 18.33° C | 56% | 1012.6 hPa | 0 mm | - | - | - |
| 1778172843 | 17.78° C | 54% | 1012.7 hPa | 0 mm | - | - | - |
| 1778172303 | 18.33° C | 54% | 1012.7 hPa | 0 mm | - | - | - |
| 1778171763 | 18.33° C | 53% | 1012.7 hPa | 0 mm | - | - | - |
| 1778171223 | 18.33° C | 57% | 1012.8 hPa | 0 mm | - | - | - |
| 1778170683 | 18.33° C | 54% | 1012.7 hPa | 0 mm | - | - | - |
| 1778170143 | 17.78° C | 55% | 1012.8 hPa | 0 mm | - | - | - |
| 1778169603 | 18.33° C | 54% | 1012.8 hPa | 0 mm | - | - | - |
| 1778169243 | 18.89° C | 55% | 1012.9 hPa | 0 mm | - | - | - |
| 1778168703 | 18.89° C | 56% | 1012.8 hPa | 0 mm | - | - | - |
| 1778168163 | 18.33° C | 57% | 1012.8 hPa | 0 mm | - | - | - |
| 1778167623 | 17.78° C | 58% | 1013 hPa | 0 mm | - | - | - |
| 1778167083 | 17.22° C | 56% | 1013.1 hPa | 0 mm | - | - | - |
| 1778166543 | 18.33° C | 56% | 1013 hPa | 0 mm | - | - | - |
| 1778166003 | 18.89° C | 56% | 1013 hPa | 0 mm | - | - | - |
| 1778165643 | 17.78° C | 60% | 1013.1 hPa | 0 mm | - | - | - |
| 1778165103 | 17.78° C | 62% | 1013.2 hPa | 0 mm | - | - | - |
| 1778164563 | 18.89° C | 59% | 1013.2 hPa | 0 mm | - | - | - |
| 1778164023 | 17.78° C | 56% | 1013.3 hPa | 0 mm | - | - | - |
| 1778163483 | 17.78° C | 57% | 1013.4 hPa | 0 mm | - | - | - |
| 1778162943 | 18.33° C | 61% | 1013.4 hPa | 0 mm | - | - | - |
| 1778162403 | 19.44° C | 61% | 1013.5 hPa | 0 mm | - | - | - |
| 1778162043 | 18.89° C | 57% | 1013.5 hPa | 0 mm | - | - | - |
* Rain latest hour (hover to see other rain measurements)
** Current wind speed in m/s (hover to see current wind gust speed)